When you browse on this site, cookies collect data to enhance your experience and personalize the content and advertising you see.
Visit our Privacy Policy to learn more. By continuing to use the site, you agree to this use of cookies and data.
  • In Austria
  • List of Countries
  • For 7 days
  • Water Temperature
  • Weather Map
  • News
  • Weather Widgets
  • user-avatar
    Login

    Hourly Weather Bonn

    Today, 2 June, Tuesday

    Time Temperature Precipitation Wind Pressure Humidity
    00:00 +16°C° 0 mm 1 mps 758 mmHg 81%
    01:00 +15°C° 0 mm 1 mps 758 mmHg 83%
    02:00 +15°C° 0 mm 1 mps 758 mmHg 85%
    03:00 +14°C° 0 mm 1 mps 758 mmHg 86%
    04:00 +16°C° 0 mm 1 mps 758 mmHg 81%
    05:00 +18°C° 0 mm 1 mps 758 mmHg 76%
    06:00 +19°C° 0 mm 1 mps 758 mmHg 71%
    07:00 +21°C° 0 mm 1 mps 757 mmHg 64%
    08:00 +23°C° 0 mm 1 mps 757 mmHg 57%
    09:00 +25°C° 0 mm 1 mps 757 mmHg 50%
    10:00 +26°C° 0 mm 1 mps 757 mmHg 46%
    11:00 +27°C° 0 mm 1 mps 756 mmHg 42%
    12:00 +28°C° 0 mm 1 mps 756 mmHg 38%
    13:00 +28°C° 0 mm 1 mps 755 mmHg 39%
    14:00 +28°C° 0 mm 1 mps 755 mmHg 39%
    15:00 +28°C° 0 mm 1 mps 754 mmHg 39%
    16:00 +27°C° 0.1 mm 1 mps 753 mmHg 46%
    17:00 +26°C° 0.1 mm 1 mps 753 mmHg 53%
    18:00 +25°C° 0.1 mm 1 mps 753 mmHg 60%
    19:00 +23°C° 0 mm 1 mps 753 mmHg 63%
    20:00 +22°C° 0 mm 1 mps 752 mmHg 66%
    21:00 +20°C° 0 mm 1 mps 752 mmHg 70%
    22:00 +19°C° 0.2 mm 1 mps 752 mmHg 74%
    23:00 +18°C° 0.2 mm 1 mps 752 mmHg 79%

    Tomorrow, 3 June, Wednesday

    Time Temperature Precipitation Wind Pressure Humidity
    00:00 +16°C° 0.2 mm 1 mps 751 mmHg 83%
    01:00 +16°C° 0.3 mm 1 mps 751 mmHg 84%
    02:00 +15°C° 0.3 mm 1 mps 750 mmHg 85%
    03:00 +15°C° 0.3 mm 1 mps 750 mmHg 86%
    04:00 +16°C° 0.1 mm 1 mps 749 mmHg 84%
    05:00 +16°C° 0.1 mm 1 mps 749 mmHg 82%
    06:00 +18°C° 0.1 mm 1 mps 749 mmHg 80%
    07:00 +20°C° 0 mm 1 mps 749 mmHg 70%
    08:00 +22°C° 0 mm 1 mps 748 mmHg 61%
    09:00 +23°C° 0 mm 2 mps 748 mmHg 51%
    10:00 +24°C° 0.1 mm 2 mps 747 mmHg 50%
    11:00 +25°C° 0.1 mm 2 mps 747 mmHg 49%
    12:00 +26°C° 0.1 mm 2 mps 746 mmHg 48%
    13:00 +25°C° 0.4 mm 2 mps 746 mmHg 51%
    14:00 +25°C° 0.4 mm 2 mps 745 mmHg 55%
    15:00 +25°C° 0.4 mm 2 mps 745 mmHg 58%
    16:00 +24°C° 0.2 mm 2 mps 744 mmHg 62%
    17:00 +23°C° 0.2 mm 2 mps 744 mmHg 66%
    18:00 +21°C° 0.2 mm 2 mps 744 mmHg 71%
    19:00 +21°C° 0.3 mm 1 mps 744 mmHg 74%
    20:00 +20°C° 0.3 mm 1 mps 744 mmHg 76%
    21:00 +19°C° 0.3 mm 1 mps 743 mmHg 79%
    22:00 +18°C° 0 mm 1 mps 743 mmHg 80%
    23:00 +18°C° 0 mm 1 mps 743 mmHg 82%

    Day after tomorrow, 4 June, Thursday

    Time Temperature Precipitation Wind Pressure Humidity
    00:00 +16°C° 0 mm 1 mps 743 mmHg 83%
    01:00 +16°C° 0.4 mm 2 mps 742 mmHg 86%
    02:00 +16°C° 0.4 mm 2 mps 742 mmHg 88%
    03:00 +15°C° 0.4 mm 2 mps 741 mmHg 91%
    04:00 +15°C° 0.8 mm 2 mps 741 mmHg 91%
    05:00 +15°C° 0.8 mm 2 mps 741 mmHg 92%
    06:00 +14°C° 0.8 mm 3 mps 741 mmHg 92%
    07:00 +14°C° 0 mm 3 mps 741 mmHg 89%
    08:00 +16°C° 0 mm 3 mps 740 mmHg 86%
    09:00 +16°C° 0 mm 3 mps 740 mmHg 82%
    10:00 +17°C° 0.3 mm 4 mps 740 mmHg 78%
    11:00 +18°C° 0.3 mm 4 mps 740 mmHg 73%
    12:00 +19°C° 0.3 mm 5 mps 740 mmHg 68%
    13:00 +16°C° 0.4 mm 5 mps 740 mmHg 75%
    14:00 +14°C° 0.4 mm 5 mps 740 mmHg 81%
    15:00 +13°C° 0.4 mm 5 mps 740 mmHg 87%
    16:00 +12°C° 0.2 mm 4 mps 740 mmHg 88%
    17:00 +12°C° 0.2 mm 4 mps 740 mmHg 88%
    18:00 +11°C° 0.2 mm 3 mps 741 mmHg 88%
    19:00 +11°C° 0.2 mm 3 mps 741 mmHg 88%
    20:00 +11°C° 0.2 mm 3 mps 742 mmHg 88%
    21:00 +10°C° 0.2 mm 3 mps 742 mmHg 87%
    22:00 +9°C° 0 mm 3 mps 742 mmHg 87%
    23:00 +9°C° 0 mm 3 mps 742 mmHg 88%

    5 June, Friday

    Time Temperature Precipitation Wind Pressure Humidity
    00:00 +8°C° 0 mm 3 mps 742 mmHg 88%
    01:00 +7°C° 0 mm 3 mps 742 mmHg 89%
    02:00 +7°C° 0 mm 3 mps 742 mmHg 89%
    03:00 +5°C° 0 mm 3 mps 743 mmHg 90%
    04:00 +7°C° 0 mm 3 mps 743 mmHg 87%
    05:00 +8°C° 0 mm 3 mps 743 mmHg 84%
    06:00 +9°C° 0 mm 3 mps 743 mmHg 81%
    07:00 +11°C° 0.2 mm 4 mps 742 mmHg 77%
    08:00 +12°C° 0.2 mm 4 mps 742 mmHg 72%
    09:00 +13°C° 0.2 mm 5 mps 742 mmHg 67%
    10:00 +13°C° 0.9 mm 4 mps 742 mmHg 72%
    11:00 +12°C° 0.9 mm 4 mps 742 mmHg 77%
    12:00 +12°C° 0.9 mm 3 mps 742 mmHg 81%
    13:00 +13°C° 0.6 mm 4 mps 742 mmHg 77%
    14:00 +14°C° 0.6 mm 4 mps 742 mmHg 73%
    15:00 +14°C° 0.6 mm 4 mps 742 mmHg 69%
    16:00 +14°C° 0.2 mm 4 mps 742 mmHg 68%
    17:00 +14°C° 0.2 mm 3 mps 742 mmHg 66%
    18:00 +14°C° 0.2 mm 3 mps 743 mmHg 65%
    19:00 +12°C° 0 mm 3 mps 743 mmHg 67%
    20:00 +12°C° 0 mm 2 mps 743 mmHg 68%
    21:00 +9°C° 0 mm 2 mps 743 mmHg 70%
    22:00 +9°C° 0 mm 3 mps 743 mmHg 74%
    23:00 +9°C° 0 mm 3 mps 743 mmHg 78%

    6 June, Saturday

    Time Temperature Precipitation Wind Pressure Humidity
    00:00 +9°C° 0 mm 3 mps 743 mmHg 83%
    01:00 +8°C° 0.3 mm 4 mps 743 mmHg 85%
    02:00 +8°C° 0.3 mm 4 mps 743 mmHg 87%
    03:00 +8°C° 0.3 mm 4 mps 744 mmHg 88%
    04:00 +10°C° 0.1 mm 4 mps 744 mmHg 87%
    05:00 +10°C° 0.1 mm 4 mps 744 mmHg 86%
    06:00 +11°C° 0.1 mm 4 mps 744 mmHg 85%
    07:00 +11°C° 0.4 mm 4 mps 744 mmHg 83%
    08:00 +12°C° 0.4 mm 4 mps 744 mmHg 81%
    09:00 +13°C° 0.4 mm 5 mps 744 mmHg 80%
    10:00 +14°C° 0.4 mm 5 mps 745 mmHg 70%
    11:00 +15°C° 0.4 mm 6 mps 745 mmHg 60%
    12:00 +17°C° 0.4 mm 6 mps 745 mmHg 50%
    13:00 +17°C° 0 mm 6 mps 745 mmHg 47%
    14:00 +17°C° 0 mm 6 mps 745 mmHg 44%
    15:00 +17°C° 0 mm 6 mps 746 mmHg 41%
    16:00 +16°C° 0 mm 5 mps 746 mmHg 45%
    17:00 +15°C° 0 mm 5 mps 746 mmHg 48%
    18:00 +14°C° 0 mm 4 mps 746 mmHg 52%
    19:00 +12°C° 0 mm 3 mps 747 mmHg 59%
    20:00 +11°C° 0 mm 3 mps 748 mmHg 65%
    21:00 +9°C° 0 mm 2 mps 748 mmHg 72%
    22:00 +8°C° 0 mm 2 mps 748 mmHg 75%
    23:00 +8°C° 0 mm 2 mps 749 mmHg 78%

    7 June, Sunday

    Time Temperature Precipitation Wind Pressure Humidity
    00:00 +7°C° 0 mm 3 mps 749 mmHg 81%
    01:00 +7°C° 0 mm 3 mps 749 mmHg 82%
    02:00 +6°C° 0 mm 2 mps 749 mmHg 83%
    03:00 +6°C° 0 mm 2 mps 750 mmHg 85%
    04:00 +7°C° 0 mm 3 mps 750 mmHg 79%
    05:00 +8°C° 0 mm 3 mps 750 mmHg 73%
    06:00 +10°C° 0 mm 3 mps 750 mmHg 67%
    07:00 +11°C° 0 mm 3 mps 750 mmHg 62%
    08:00 +12°C° 0 mm 4 mps 751 mmHg 56%
    09:00 +13°C° 0 mm 4 mps 751 mmHg 50%
    10:00 +14°C° 0 mm 4 mps 751 mmHg 47%
    11:00 +15°C° 0 mm 4 mps 751 mmHg 45%
    12:00 +17°C° 0 mm 4 mps 751 mmHg 42%
    13:00 +17°C° 0 mm 4 mps 751 mmHg 43%
    14:00 +17°C° 0 mm 4 mps 751 mmHg 45%
    15:00 +15°C° 0 mm 4 mps 751 mmHg 46%
    16:00 +15°C° 0.1 mm 4 mps 752 mmHg 52%
    17:00 +14°C° 0.1 mm 3 mps 752 mmHg 59%
    18:00 +14°C° 0.1 mm 3 mps 752 mmHg 65%
    19:00 +12°C° 0 mm 3 mps 753 mmHg 71%
    20:00 +12°C° 0 mm 2 mps 753 mmHg 76%
    21:00 +9°C° 0 mm 2 mps 754 mmHg 82%
    22:00 +8°C° 0 mm 2 mps 754 mmHg 82%
    23:00 +8°C° 0 mm 2 mps 754 mmHg 82%
    Show more